Location: Charlottesville
(38.0290°N, 78.4770°W)
Time: 21:32:20
(UTC-04:00)

Hubble Space Telescope - Pass Details

Date: 08 October 2017
Orbit: 537 x 541 km, 28.5° (Epoch: 19 October)

Event Time Altitude Azimuth Distance (km) Brightness Sun altitude
Exits shadow 05:27:11 20° 175° (S) 1,275 2.6 -22.2°
Drops below altitude 10° 05:29:45 10° 137° (SE) 1,788 3.8 -21.7°
Sets 05:32:27 0° 121° (ESE) 2,678 5.1 -21.2°
